Погода в Чаплинке

Украина / Херсонская область     46°21′53″N   33°32′11″E
темп.,
°C
ветер,
м/с
пор.,
м/с
влажн.,
%
обл.,
%
осадки,
мм/ч
давл.,
гПа
погр.,
м
13 апреля, вт
вт1300:00+9ююв128883 0.0 102137
03:00+7зюз229091 0.0 102114
06:00+6ю0090100 0.0 102110
09:00+10ю227880 0.0 1021378
12:00+13ю3369100 0.0 1021751
15:00+14ююз4459100 0.1 10201234
18:00+12юз236857 0.0 1020507
21:00+8ююз228867 0.0 102017
14 апреля, ср
ср1400:00+8юв008896 0.0 101910
03:00+7з1190100 0.0 101819
06:00+6зсз2290100 0.0 101813
09:00+11в11765 0.0 1017407
12:00+15вюв445941 0.0 10161000
15:00+15вюв4456100 0.0 1015796
18:00+12в5865100 0.0 1013297
21:00+10зюз3678100 0.0 1014187
15 апреля, чт
чт1500:00+10ююз239266 0.0 1013159
03:00+9юв2491100 0.2 1013211
06:00+9юв4793100 2.1 1012329
09:00+10ююз698392 2.4 1013779
12:00+10ююз7978100 0.1 1014899
15:00+9юз81183100 0.2 1014707
18:00+9юз7117670 0.0 1015770
21:00
16 апреля, пт
пт1600:00+7юз488585 0.0 1015378
03:00+7ююз3884100 0.1 1015416
06:00+7ююз6118391 0.1 1014493
09:00+10зюз57698 0.2 1014815
12:00+11юз795814 0.0 10151428
15:00+11юз79575 0.1 10161238
18:00+9юз696790 0.0 1016883
21:00+6юз38901 0.0 1017197
17 апреля, сб
сб1700:00+6ююз499022 0.0 1017223
03:00+6ююз489496 0.0 1018175
06:00+5юз239348 0.0 101833
09:00+10зюз23696 0.0 1019584
12:00+14юз345021 0.0 10191663
15:00+14зюз444213 0.0 10191635
18:00+13зюз224713 0.0 10191072
21:00+8ююз016810 0.0 102011